Regional Weather Roundup
Issued by NWS

Home | Current Version | Previous Version | Graphics & Text | Print | Product List | Glossary On
Versions: 1 2 3 4 5 6 7 8 9 10 11 12 13 14 15 16 17 18 19 20 21 22 23 24 25 26 27 28 29 30 31 32 33 34 35 36 37 38 39 40 41 42 43 44 45 46 47 48 49 50
489
ASUS43 KLSX 050507
RWRMO

WEATHER SUMMARY FOR MISSOURI
NATIONAL WEATHER SERVICE SPRINGFIELD MO
1200 AM CDT THU MAY 05 2016

NOTE: "FAIR" INDICATES FEW OR NO CLOUDS BELOW 12,000 FEET WITH NO
       SIGNIFICANT WEATHER AND/OR OBSTRUCTIONS TO VISIBILITY.
       CURRENT SKY AND/OR WEATHER CONDITIONS ARE NOT AVAILABLE FOR
       CHILLICOTHE AND FARMINGTON.

MOZ001>031-035>038-043-044-053-054-050600-
...NORTHERN AND WESTERN MISSOURI...

CITY           SKY/WX    TMP DP  RH WIND       PRES   REMARKS
KANSAS CTY INT CLEAR     55  37  50 N7        30.01S
KANSAS C DTWN  CLEAR     54  41  61 CALM      30.00S
LEE`S SUMMIT   CLEAR     57  38  48 CALM      30.01S
ST JOSEPH      CLEAR     50  42  74 CALM      30.01S
CHILLICOTHE      N/A     49  42  77 CALM      29.99S
KIRKSVILLE     CLEAR     50  36  58 NW6       29.96R

$$
MOZ066>068-077>081-088>096-101>105-050600-
...SOUTHWEST MISSOURI...

CITY           SKY/WX    TMP DP  RH WIND       PRES   REMARKS
SPRINGFIELD    CLEAR     53  38  56 NW5       29.99R
JOPLIN         PTCLDY    50  43  77 CALM      30.01S

$$
MOZ032>034-039>042-045>050-055>058-069>072-050600-
...CENTRAL MISSOURI...

CITY           SKY/WX    TMP DP  RH WIND       PRES   REMARKS
COLUMBIA       CLEAR     50  37  61 W7        29.95S
JEFFERSON CITY CLEAR     49  40  71 NW3       29.95S
ROLLA          PTCLDY    50  36  58 W5        29.93F
SEDALIA        CLEAR     54  38  54 W7        29.99S
WHITEMAN AFB   CLEAR     53  39  57 W2        29.98S
WARRENSBURG    CLEAR     52  37  58 W5        30.00S
OSAGE BEACH    CLEAR     48  34  57 W3        29.98R

$$
MOZ051-052-059>065-050600-
...EAST CENTRAL MISSOURI...

CITY           SKY/WX    TMP DP  RH WIND       PRES   REMARKS
ST LOUIS INTL  PTCLDY    56  37  49 NW6       29.90S
SPIRIT OF STL  PTCLDY    49  41  74 W6        29.89F
ST CHARLES     PTCLDY    53  42  66 W7        29.89S

$$
MOZ072>076-082>087-097>100-106>115-050600-
...SOUTH CENTRAL AND SOUTHEAST MISSOURI...

CITY           SKY/WX    TMP DP  RH WIND       PRES   REMARKS
CAPE GIRARDEAU CLEAR     47  43  86 W5        29.89F
FARMINGTON     PTCLDY    50  37  61 CALM      29.91F
POPLAR BLUFF   CLEAR     53  39  59 W5        29.92R
WEST PLAINS    CLEAR     52  35  52 NW5       29.97R

$$



USA.gov is the U.S. government's official web portal to all federal, state and local government web resources and services.